Redding, CA

2:35 PM PST on November 19, 2019 (GMT -0800)
Redding Municipal

Weather History for KRDD - September, 2019

Change the Weather History Date:

Thursday, September 26, 2019

  Actual Average Record
Temperature  
Mean Temperature 86 °F -  
Max Temperature 99 °F 88 °F 111 °F (2009)
Min Temperature 73 °F 55 °F 42 °F (1984)
Degree Days  
Heating Degree Days 0    
Cooling Degree Days 21    
Growing Degree Days 38 (Base 50)    
Moisture  
Dew Point 45 °F    
Average Humidity 32    
Maximum Humidity 50    
Minimum Humidity 13    
Precipitation  
Precipitation 0.00 in 0.03 in 1.27 in (1957)
Month to date precipitation 0.24 0.52  
Year to date precipitation 32.51 21.65  
Sea Level Pressure  
Sea Level Pressure 29.76 in    
Wind  
Wind Speed 9 mph (NNW)    
Max Wind Speed 17 mph    
Max Gust Speed 23 mph    
Visibility 10 miles    
Events      
T = Trace of Precipitation, MM = Missing Value Source: NWS Daily Summary

Daily Weather History Graph

Daily Weather History Graph

Search for Another Location

Airport or City:

Astronomy

Sep. 26, 2019 Rise Set
Actual Time 7:00 AM PDT 6:59 PM PDT
Civil Twilight 6:33 AM PDT 7:26 PM PDT
Nautical Twilight 6:01 AM PDT 7:58 PM PDT
Astronomical Twilight 5:29 AM PDT 8:30 PM PDT
Moon 4:12 AM PDT (9/26) 6:17 PM PDT (9/26)
Length of Visible Light 12h 53m
Length of Day
11h 59m
Waning Crescent, 6% of the Moon is Illuminated
Sep 26
Waning Crescent
Sep 28
New
Oct 5
First Quarter
Oct 13
Full
Oct 21
Last Quarter

Hourly Weather History & Observations

Time (PDT) Temp. Heat Index Dew Point Humidity Pressure Visibility Wind Dir Wind Speed Gust Speed Precip Events Conditions
12:53 AM 84.0 °F - 43.0 °F 24% 29.77 in 10.0 mi NNW 6.9 mph 16.1 mph N/A   Clear
1:53 AM 82.0 °F - 43.0 °F 25% 29.77 in 10.0 mi NW 5.8 mph - N/A   Clear
2:53 AM 81.0 °F - 43.0 °F 26% 29.77 in 10.0 mi NNW 8.1 mph - N/A   Clear
3:53 AM 81.0 °F - 43.0 °F 26% 29.77 in 10.0 mi North 5.8 mph - N/A   Clear
4:53 AM 80.1 °F - 42.1 °F 26% 29.77 in 10.0 mi North 9.2 mph - N/A   Clear
5:53 AM 79.0 °F - 42.1 °F 27% 29.77 in 10.0 mi North 8.1 mph - N/A   Clear
6:53 AM 79.0 °F - 39.0 °F 24% 29.78 in 10.0 mi North 10.4 mph - N/A   Clear
7:53 AM 80.1 °F - 39.9 °F 24% 29.79 in 10.0 mi North 10.4 mph - N/A   Clear
8:53 AM 82.9 °F - 39.9 °F 22% 29.80 in 10.0 mi North 9.2 mph - N/A   Clear
9:53 AM 86.0 °F - 39.0 °F 19% 29.80 in 10.0 mi North 6.9 mph - N/A   Clear
10:53 AM 89.1 °F - 39.0 °F 17% 29.80 in 10.0 mi NNW 9.2 mph - N/A   Clear
11:53 AM 93.0 °F - 39.0 °F 15% 29.78 in 10.0 mi North 9.2 mph - N/A   Clear
12:53 PM 96.1 °F - 37.9 °F 13% 29.76 in 10.0 mi Variable 3.5 mph - N/A   Clear
1:53 PM 97.0 °F - 39.9 °F 14% 29.73 in 10.0 mi SSE 9.2 mph - N/A   Clear
2:53 PM 97.0 °F - 39.9 °F 14% 29.71 in 10.0 mi SE 5.8 mph - N/A   Clear
3:53 PM 98.1 °F - 43.0 °F 15% 29.70 in 10.0 mi SSE 11.5 mph - N/A   Clear
4:53 PM 97.0 °F - 45.0 °F 17% 29.69 in 10.0 mi SSE 15.0 mph - N/A   Clear
5:53 PM 93.9 °F - 48.0 °F 21% 29.70 in 10.0 mi SSE 10.4 mph - N/A   Clear
6:53 PM 89.1 °F 87.1 °F 55.0 °F 31% 29.71 in 8.0 mi South 13.8 mph - N/A   Clear
7:53 PM 87.1 °F 85.3 °F 55.0 °F 33% 29.73 in 10.0 mi South 12.7 mph - N/A   Clear
8:53 PM 84.9 °F 83.9 °F 57.0 °F 38% 29.75 in 10.0 mi South 17.3 mph - N/A   Clear
9:53 PM 82.9 °F 82.6 °F 57.9 °F 42% 29.77 in 10.0 mi South 15.0 mph - N/A   Clear
10:53 PM 80.1 °F 80.6 °F 57.9 °F 47% 29.79 in 10.0 mi South 16.1 mph - N/A   Clear
11:53 PM 77.0 °F - 57.9 °F 52% 29.81 in 10.0 mi SSW 11.5 mph 18.4 mph N/A   Clear